Location: ????????
(55.0808°N, 38.5463°E)
Time: 01:37:53
(UTC+00:00)

Nimbus 3 Rocket - Pass Details

Date: 24 September 2024
Orbit: 1072 x 1131 km, 99.9° (Epoch: 03 October)

Event Time Altitude Azimuth Distance (km) Brightness Sun altitude
Rises 22:40:29 0° 17° (NNE) 3,912 9.2 -33.3°
Reaches altitude 10° 22:43:06 10° 13° (NNE) 2,945 8.3 -33.1°
Enters shadow 22:49:06 51° 311° (NW) 1,345 5.7 -32.7°
